[[{"header":{"parameterUnit":"m.s-1","parameterCategory":1,"la1":30.2991,"la2":30.254,"lo1":-89.0895,"lo2":-89.0444,"dy":0.0017,"dx":0.0017,"nx":28,"ny":28,"refTime":"2025-03-16T09:00:00:Z","depth":0,"parameterNumber":2,"parameterNumberName":"U-component_of_WINDS"},"data":[0,0,0,0,0,0,0,0,0,0,0,0,0,0,0,0,0,0,0,0,0,0,0,0,0,0,0,0,0,0,0,0,0,0,0,0,0,0,0,0,0,0,0,0,0,0,0,0,0,0,0,0,0,0,0,0,0,0,4.9918,4.992,0,5.0119,5.0121,5.0123,5.0085,5.0081,5.0077,5.0074,5.0286,5.0295,5.0304,0,0,0,0,0,0,0,0,0,0,0,0,0,4.9506,4.9514,4.9917,4.992,4.9922,5.0118,5.0121,5.0124,5.0085,5.0081,5.0076,5.0072,5.0283,5.0294,5.0305,0,0,0,0,0,0,0,0,0,0,0,0,0,4.9694,4.9516,4.9917,4.9927,4.9929,5.0118,5.0121,5.0124,5.0086,5.0081,5.0075,5.007,5.028,5.0293,5.0306,5.0499,0,0,5.0348,5.0353,0,0,0,0,0,0,0,0,4.9683,4.9709,4.9923,4.9926,4.993,5.0071,5.0054,5.025,5.0088,5.0027,5.0074,5.0068,5.0219,5.0237,5.0287,5.0509,5.0518,5.0349,5.0357,5.0363,5.0367,0,0,0,0,0,0,0,4.967,4.97,4.9997,4.9926,4.993,4.9923,4.9944,5.0091,5.0152,5.0032,5.0029,5.0053,5.022,5.0274,5.0292,5.0521,5.0348,5.036,5.0369,5.0374,5.0912,5.0918,0,0,0,0,0,0,4.9653,4.969,4.9991,5.0003,4.979,4.9935,4.9958,5.0031,5.015,5.0162,5.0058,5.0051,5.0254,5.0276,5.0299,5.0534,5.0363,5.0375,5.0383,5.0906,5.0914,5.092,0,0,0,0,0,0,4.9645,4.968,4.9983,4.9846,4.9884,4.9948,5.003,5.0038,5.0092,5.0169,5.0181,5.0102,5.025,5.028,5.0449,5.054,5.0381,5.0394,5.0899,5.0909,5.0917,5.1003,0,0,0,0,0,0,4.9633,4.9677,4.975,4.9848,4.9891,5.0128,5.0036,5.0046,5.0115,5.0108,5.0213,5.0226,5.0248,5.0429,5.0463,5.0556,5.0404,5.0891,5.0903,5.0914,5.0993,5.1014,5.1033,0,0,0,0,0,4.9618,4.9767,4.9754,4.979,4.9983,5.0133,5.0158,5.0179,5.0122,5.0197,5.0246,5.0222,5.0525,5.0447,5.0484,5.0583,5.0886,5.09,5.0913,5.0984,5.101,5.1032,0,0,0,0,0,0,4.9681,4.978,4.9766,4.9951,5.0034,5.0126,5.022,5.0207,5.0309,5.0298,5.0322,5.0346,5.0518,5.0568,5.0479,5.0777,5.0697,5.0719,5.0738,5.0764,5.0784,5.0769,5.0416,0,0,0,0,0,4.9715,4.9827,4.9909,5.0064,5.0106,5.0156,5.0222,5.0232,5.0319,5.0354,5.0416,5.0504,5.0619,5.0694,5.0804,5.0999,5.1023,5.1086,5.1106,5.1122,5.1141,5.125,5.1279,5.0966,5.0966,5.0966,0,0,4.9789,4.9857,4.9927,5.0078,5.0143,5.026,5.0186,5.0313,5.0401,5.0374,5.0537,5.0586,5.0686,5.0869,5.0953,5.0915,5.1233,5.114,5.1152,5.1163,5.1267,5.1296,5.1323,5.0975,5.0974,5.0972,0,0,4.9983,5.0046,5.0182,5.0249,5.0347,5.038,5.0413,5.0508,5.0539,5.0702,5.0685,5.0791,5.0988,5.1059,5.1122,5.1344,5.1326,5.1379,5.1485,5.159,5.1615,5.1637,5.1717,5.1746,5.1398,5.1398,5.1398,0,5.0063,5.0237,5.0254,5.0383,5.0451,5.0431,5.057,5.0635,5.0765,5.0814,5.0769,5.1016,5.1082,5.1282,5.1336,5.1387,5.1427,5.1368,5.1609,5.1632,5.1653,5.173,5.176,5.1404,5.1403,5.1403,5.1402,0,5.0331,5.0452,5.055,5.0675,5.0754,5.0888,5.0927,5.1006,5.1008,5.1046,5.1214,5.1292,5.1417,5.1465,5.147,5.1667,5.1641,5.1603,5.1524,5.1688,5.1761,5.179,5.1412,5.141,5.1408,5.1407,0,0,5.057,5.0702,5.0738,5.0795,5.0903,5.0998,5.1131,5.1252,5.1319,5.1411,5.1524,5.1692,5.1657,5.1728,5.174,5.1833,5.2005,5.1784,5.1786,5.1823,5.2229,5.2257,5.2291,5.1994,5.1999,5.2004,5.2221,0,5.0775,5.1008,5.1028,5.1239,5.1351,5.1334,5.1451,5.1531,5.157,5.1673,5.1717,5.1835,5.178,5.1823,5.1914,5.1965,5.2087,5.1949,5.2102,5.2107,5.2078,5.2329,5.2359,5.256,5.2249,5.2254,5.2258,0,5.1045,5.1142,5.1363,5.1456,5.1504,5.1608,5.1721,5.1819,5.191,5.1933,5.2012,5.2012,5.2151,5.2067,5.226,5.2166,5.223,5.2265,5.2273,5.2289,5.2192,5.2352,5.2624,5.2655,5.2302,5.2299,5.2296,0,5.1198,5.1385,5.1541,5.159,5.1702,5.1776,5.1826,5.1911,5.1983,5.2083,5.213,5.2245,5.2308,5.2399,5.2431,5.2366,5.2624,5.2541,5.2648,5.2647,5.2703,5.27,5.2991,5.2743,5.2743,5.2742,5.2742,0,5.1425,5.1561,5.1611,5.1708,5.1861,5.1883,5.2035,5.2082,5.2158,5.2265,5.2258,5.2359,5.2394,5.2502,5.2528,5.2686,5.2714,5.2738,5.2743,5.2739,5.2736,5.2781,5.2768,5.275,5.2749,5.2747,5.2746,0,5.1622,5.1661,5.1831,5.1922,5.1948,5.2057,5.2136,5.2231,5.2268,5.2403,5.2437,5.2497,5.2623,5.2663,5.2817,5.2834,5.3018,5.3011,5.2987,5.2988,5.3092,5.3082,5.3423,5.347,5.3191,5.3194,5.3196,0,5.1765,5.1869,5.1971,5.2041,5.2094,5.2207,5.228,5.2307,5.2383,5.2495,5.2577,5.2701,5.2802,5.3005,5.3064,5.3181,5.3177,5.3289,5.3195,5.3188,5.318,5.3174,5.3185,5.3307,5.331,5.3312,5.3314,0,5.2014,5.2028,5.2131,5.2243,5.233,5.2419,5.2506,5.2564,5.2604,5.2691,5.2819,5.2897,5.3053,5.3177,5.3297,5.3351,5.3341,5.3343,5.3374,5.3371,5.3352,5.3364,5.3035,5.3335,5.3333,5.3331,5.333,5.3329,5.2189,5.2281,5.2367,5.2484,5.2551,5.2632,5.2725,5.2774,5.288,5.3008,5.3018,5.3156,5.3247,5.3406,5.3466,5.3576,5.3545,5.359,5.3601,5.3612,5.362,5.3334,5.3598,5.3598,5.3597,5.3597,5.3596,0,5.2438,5.2492,5.2599,5.272,5.2812,5.2791,5.2886,5.2965,5.3087,5.3171,5.327,5.3418,5.3539,5.3606,5.3728,5.3803,5.3802,5.3834,5.3829,5.3842,5.3641,5.3602,5.3834,5.3834,5.3834,5.3834,5.3834,5.3833,5.2578,5.2733,5.2758,5.2947,5.3001,5.3135,5.3191,5.3267,5.3334,5.3499,5.3598,5.3641,5.3719,5.3846,5.3957,5.3974,5.4019,5.4056,5.407,5.3881,5.3856,5.3833,5.3797,5.4065,5.4066,5.4262,5.4264,5.4265]},{"header":{"parameterUnit":"m.s-1","parameterCategory":1,"la1":30.2991,"la2":30.254,"lo1":-89.0895,"lo2":-89.0444,"dy":0.0017,"dx":0.0017,"nx":28,"ny":28,"refTime":"2025-03-16T09:00:00:Z","depth":0,"parameterNumber":3,"parameterNumberName":"V-component_of_WINDS"},"data":[0,0,0,0,0,0,0,0,0,0,0,0,0,0,0,0,0,0,0,0,0,0,0,0,0,0,0,0,0,0,0,0,0,0,0,0,0,0,0,0,0,0,0,0,0,0,0,0,0,0,0,0,0,0,0,0,0,0,1.1229,1.1228,0,1.1155,1.1154,1.1153,1.1112,1.1112,1.1112,1.1112,1.1031,1.1029,1.1027,0,0,0,0,0,0,0,0,0,0,0,0,0,1.1329,1.1327,1.1229,1.1228,1.1227,1.1155,1.1154,1.1153,1.1112,1.1112,1.1112,1.1112,1.1031,1.1029,1.1026,0,0,0,0,0,0,0,0,0,0,0,0,0,1.1273,1.1327,1.1229,1.1198,1.1195,1.1155,1.1154,1.1153,1.1112,1.1112,1.1112,1.1112,1.1032,1.1029,1.1026,1.101,0,0,1.1017,1.1015,0,0,0,0,0,0,0,0,1.1276,1.1269,1.1204,1.12,1.1196,1.1143,1.1159,1.1105,1.1112,1.1143,1.1112,1.1112,1.1068,1.1062,1.1048,1.1006,1.1003,1.1016,1.1014,1.1013,1.1012,0,0,0,0,0,0,0,1.128,1.1272,1.12,1.1203,1.1198,1.1186,1.1178,1.1149,1.1107,1.1141,1.1138,1.113,1.1066,1.1051,1.1046,1.1002,1.1016,1.1014,1.1012,1.1011,1.094,1.094,0,0,0,0,0,0,1.129,1.1276,1.1202,1.1197,1.1237,1.1184,1.1175,1.116,1.1107,1.1099,1.113,1.1128,1.1056,1.1049,1.1043,1.1019,1.1013,1.101,1.1008,1.094,1.094,1.094,0,0,0,0,0,0,1.1292,1.1284,1.1205,1.1236,1.1225,1.1183,1.1166,1.1159,1.1144,1.1099,1.1091,1.1123,1.1056,1.1047,1.1018,1.1016,1.1009,1.1006,1.094,1.094,1.094,1.0973,0,0,0,0,0,0,1.1295,1.1285,1.128,1.1236,1.1223,1.1184,1.1166,1.1157,1.114,1.1136,1.1091,1.1083,1.1055,1.1023,1.1015,1.1011,1.1004,1.094,1.094,1.094,1.0972,1.0974,1.0976,0,0,0,0,0,1.1299,1.1291,1.128,1.1271,1.1217,1.1184,1.1176,1.1146,1.114,1.1133,1.1104,1.1084,1.1017,1.1021,1.1011,1.1006,1.094,1.094,1.094,1.0971,1.0973,1.0976,0,0,0,0,0,0,1.1335,1.1285,1.1272,1.125,1.1222,1.1177,1.1168,1.115,1.1122,1.112,1.1082,1.1072,1.1046,1.1023,1.1028,1.0987,1.0976,1.0974,1.1003,1.1005,1.1007,1.1013,1.1001,0,0,0,0,0,1.134,1.132,1.1277,1.1262,1.1248,1.1211,1.1195,1.1175,1.1143,1.113,1.1099,1.1067,1.1038,1.102,1.0992,1.0968,1.0956,1.096,1.0962,1.0964,1.0962,1.0946,1.0946,1.094,1.094,1.094,0,0,1.1351,1.1322,1.1311,1.1268,1.1244,1.1221,1.1201,1.1178,1.116,1.1126,1.1097,1.1073,1.1034,1.1008,1.0994,1.0988,1.0961,1.0963,1.0965,1.0963,1.0946,1.0946,1.0947,1.094,1.094,1.094,0,0,1.136,1.1336,1.1321,1.1296,1.126,1.1235,1.1231,1.1188,1.1171,1.1142,1.1115,1.1092,1.1044,1.1018,1.0998,1.0994,1.0974,1.0986,1.0996,1.0981,1.0981,1.0981,1.0979,1.0978,1.0985,1.0985,1.0985,0,1.1378,1.1345,1.1314,1.1293,1.1274,1.1243,1.1225,1.1202,1.1158,1.1144,1.1138,1.1076,1.1048,1.1014,1.1013,1.0998,1.0991,1.0991,1.0984,1.0984,1.0983,1.098,1.098,1.0986,1.0986,1.0986,1.0986,0,1.1368,1.1345,1.1336,1.1296,1.1275,1.1256,1.122,1.1203,1.1183,1.1158,1.1127,1.1092,1.1055,1.1045,1.1026,1.1007,1.1004,1.0992,1.098,1.0986,1.0983,1.0981,1.0988,1.0988,1.0987,1.0987,0,0,1.1398,1.134,1.1337,1.1317,1.1274,1.1254,1.1232,1.1198,1.1183,1.1152,1.1131,1.1091,1.1078,1.1056,1.1032,1.1019,1.1016,1.1007,1.1005,1.1009,1.0992,1.1001,1.1001,1.1002,1.1002,1.1002,1.0994,0,1.14,1.1361,1.1332,1.1304,1.1281,1.125,1.123,1.12,1.1175,1.115,1.1122,1.1094,1.108,1.1066,1.1051,1.102,1.1012,1.102,1.098,1.098,1.0991,1.0999,1.101,1.1005,1.0993,1.0993,1.0993,0,1.1397,1.1369,1.1339,1.1296,1.1286,1.1269,1.1234,1.1211,1.1175,1.1158,1.1132,1.1108,1.108,1.1071,1.1032,1.1038,1.1019,1.1001,1.1,1.0995,1.0987,1.0993,1.1003,1.1002,1.099,1.099,1.0991,0,1.1421,1.1375,1.1351,1.1335,1.1285,1.1274,1.1252,1.1216,1.1196,1.1165,1.1151,1.1116,1.1097,1.1069,1.1034,1.1031,1.0997,1.0986,1.098,1.0981,1.0975,1.0976,1.098,1.0964,1.0964,1.0964,1.0964,0,1.1426,1.1408,1.1361,1.1346,1.1324,1.129,1.1268,1.1244,1.1211,1.1189,1.1159,1.1138,1.1095,1.1068,1.104,1.101,1.1002,1.0985,1.0978,1.0988,1.099,1.0975,1.0975,1.0964,1.0964,1.0964,1.0964,0,1.1449,1.1417,1.1388,1.1343,1.1331,1.1317,1.1277,1.126,1.1233,1.1205,1.1197,1.1154,1.112,1.1083,1.1037,1.1018,1.099,1.098,1.1003,1.0998,1.0994,1.0995,1.099,1.0986,1.0973,1.0974,1.0974,0,1.1455,1.1441,1.1394,1.1378,1.1357,1.1331,1.1311,1.1276,1.1255,1.1212,1.12,1.1164,1.1134,1.1081,1.1044,1.1008,1.0997,1.0997,1.0991,1.1,1.0995,1.0996,1.0994,1.0999,1.0999,1.1,1.1,0,1.1467,1.1451,1.1425,1.1392,1.137,1.1342,1.1312,1.13,1.1257,1.1236,1.1202,1.1179,1.1132,1.1096,1.1055,1.1029,1.1007,1.1002,1.0999,1.1008,1.1022,1.1013,1.1007,1.1002,1.1002,1.1002,1.1002,1.1002,1.1481,1.1466,1.1431,1.1402,1.1376,1.1349,1.133,1.1301,1.1273,1.1233,1.1213,1.1179,1.114,1.1083,1.1058,1.1029,1.1022,1.1017,1.1016,1.1015,1.1017,1.1027,1.1021,1.1021,1.1021,1.1021,1.1021,0,1.1491,1.1466,1.144,1.14,1.1376,1.1359,1.1325,1.1305,1.1276,1.1243,1.1214,1.1174,1.1139,1.1099,1.106,1.1045,1.1033,1.1036,1.1036,1.103,1.1026,1.1033,1.1046,1.1046,1.1046,1.1046,1.1046,1.1046,1.1493,1.1467,1.1447,1.1407,1.1382,1.135,1.1331,1.1305,1.1279,1.1236,1.1207,1.1182,1.1145,1.1103,1.1069,1.1058,1.1045,1.105,1.1036,1.1033,1.1031,1.1029,1.1035,1.1048,1.1048,1.1042,1.1042,1.1042]}]]